Showing default

BD-20, 40938

Orbit data source: Space-Track

BD-20, 40938 is a payload satellite owned by CNSA (CN) that was launched on Tue, 29 Sep 2015 UTC via a CHANG ZHENG 3B launch vehicle from the Xichang Space Center, China (XSC). Payload-class satellites include a variety of spacecraft equipped with specific instruments for various scientific and technological missions. These include communications satellites like Starlink; space stations such as the ISS; scientific satellites like the Hubble; Earth observation satellites from companies like Planet Labs, Umbra, and HawkEye 360; GPS; miniature CubeSats for education and research; and military/defense satellites.

Not visible in the next 10 days
Identifier
40938, 2015-053A
Orbit
Active
Country
Flag of CNCN / PRC
Related business
Manufacturer
CAST
Mission
Awaiting activation Defense Navigation
Bus & Motor
BD-3I, AKM?
Mass
~1,150 kg wet, ~1,150 kg dry
Launch date (UTC)
2015-09-29 (10 years ago)
Launch vehicle
CHANG ZHENG 3B
Launch site
Xichang Space Center, China (XSC)
Object type
Payload
Rocket body
Debris
Shape & HBR
Box + 2 Pan, 5.0 m
Radar Cross Section
9.494 m², Large (>1 m²)

Expand to show TLE details & history
Last TLE update: 1 day ago

TLE from 1 day ago
0 BD-20
1 40938U 15053A   25347.72229093 -.00000156  00000-0  00000-0 0  9996
2 40938  49.5090 260.9931 0060775 188.8137 348.8662  1.00270015 37490
Epoch: 2025-12-13T17:20Z
TLE epoch observation values (Epoch: 2025-12-13T17:20:05.936Z)
Latitude
1.8742°
Longitude
96.71261°
Altitude
35,535.084 km
Speed
3.093 km/s
True Right ascension
05h 17m 31s
True Declination
1° 52' 20"
Sunlit
Object was in daylight at epoch
Visualization orbit readout
Latitude
Unknown
Longitude
Unknown
Altitude
Unknown
Speed
Unknown
Apparent Right ascension
Unknown
Apparent Declination
Unknown
Sunlit
N/A
Visualization observer readout
Local Sidereal Time
18:06:07
Azimuth
Unknown
Elevation
Unknown
Doppler factor
Unknown
Orbital elements
Apogee altitude
36,043.516 km
Perigee altitude
35,530.995 km
Semi-major axis
42,165.392 km
Eccentricity
0.00608
Inclination
49.509°
RAAN
260.9931°
Arg. of periapsis
188.8137°
True anomaly
348.73071°
Mean anomaly
348.8662°
Eccentric anomaly
348.79856°
Mean motion
0.25067 °/min
Orbital period
1,436.13 mins
BSTAR
0
Loading maneuver chart data...
Computing Atmospheric mass density...
Loading historical data...
Loading historical data...
Loading historical data...
Loading historical data...
Loading historical data...
Loading historical data...
Loading historical data...
Other satellites on launch #53 in the year 2015 (2015-09-29 UTC)

Documentation

Showing up to 5 results
|